• In Hungary
  • List of Countries
  • For 7 days
  • Water Temperature
  • Satellite Maps
  • Weather Map
  • News
  • Weather Widgets
  • user-avatar
    Login

    Hourly Weather Svobodka

    Today, 24 September, Monday

    Time Temperature Precipitation Wind Pressure Humidity
    00:00 +8°C° 0 mm 3 mps 739 mmHg 86%
    01:00 +7°C° 0 mm 3 mps 739 mmHg 86%
    02:00 +7°C° 0 mm 3 mps 739 mmHg 86%
    03:00 +8°C° 0 mm 3 mps 738 mmHg 84%
    04:00 +8°C° 0 mm 3 mps 738 mmHg 81%
    05:00 +8°C° 0 mm 3 mps 738 mmHg 78%
    06:00 +8°C° 0 mm 4 mps 738 mmHg 76%
    07:00 +9°C° 0 mm 5 mps 737 mmHg 73%
    08:00 +10°C° 0 mm 5 mps 737 mmHg 70%
    09:00 +9°C° 0.7 mm 6 mps 736 mmHg 74%
    10:00 +9°C° 0.7 mm 7 mps 736 mmHg 78%
    11:00 +9°C° 0.7 mm 7 mps 735 mmHg 82%
    12:00 +9°C° 1.2 mm 8 mps 734 mmHg 84%
    13:00 +9°C° 1.2 mm 8 mps 733 mmHg 85%
    14:00 +8°C° 1.2 mm 9 mps 732 mmHg 87%
    15:00 +8°C° 1.2 mm 9 mps 731 mmHg 88%
    16:00 +10°C° 1.2 mm 9 mps 730 mmHg 88%
    17:00 +10°C° 1.2 mm 9 mps 729 mmHg 89%
    18:00 +10°C° 0.3 mm 9 mps 728 mmHg 87%
    19:00 +9°C° 0.3 mm 8 mps 728 mmHg 86%
    20:00 +9°C° 0.3 mm 8 mps 728 mmHg 85%
    21:00 +7°C° 0 mm 8 mps 728 mmHg 85%
    22:00 +7°C° 0 mm 8 mps 728 mmHg 85%
    23:00 +6°C° 0 mm 8 mps 729 mmHg 85%

    Tomorrow, 25 September, Tuesday

    Time Temperature Precipitation Wind Pressure Humidity
    00:00 +6°C° 0 mm 8 mps 729 mmHg 84%
    01:00 +6°C° 0 mm 8 mps 730 mmHg 83%
    02:00 +6°C° 0 mm 8 mps 730 mmHg 83%
    03:00 +6°C° 0 mm 7 mps 730 mmHg 83%
    04:00 +6°C° 0 mm 7 mps 731 mmHg 83%
    05:00 +6°C° 0 mm 7 mps 731 mmHg 84%
    06:00 +6°C° 0.1 mm 7 mps 732 mmHg 83%
    07:00 +6°C° 0.1 mm 7 mps 732 mmHg 83%
    08:00 +6°C° 0.1 mm 7 mps 733 mmHg 83%
    09:00 +6°C° 0.1 mm 7 mps 734 mmHg 81%
    10:00 +6°C° 0.1 mm 7 mps 734 mmHg 80%
    11:00 +6°C° 0.1 mm 7 mps 735 mmHg 78%
    12:00 +6°C° 0 mm 7 mps 736 mmHg 77%
    13:00 +6°C° 0 mm 7 mps 736 mmHg 76%
    14:00 +6°C° 0 mm 7 mps 737 mmHg 74%
    15:00 +5°C° 0 mm 6 mps 738 mmHg 74%
    16:00 +5°C° 0 mm 6 mps 738 mmHg 74%
    17:00 +6°C° 0 mm 5 mps 739 mmHg 73%
    18:00 +6°C° 0 mm 5 mps 740 mmHg 73%
    19:00 +6°C° 0 mm 5 mps 740 mmHg 73%
    20:00 +5°C° 0 mm 4 mps 741 mmHg 74%
    21:00 +5°C° 0 mm 4 mps 741 mmHg 76%
    22:00 +4°C° 0 mm 4 mps 742 mmHg 78%
    23:00 +4°C° 0 mm 4 mps 742 mmHg 81%

    Day after tomorrow, 26 September, Wednesday

    Time Temperature Precipitation Wind Pressure Humidity
    00:00 +3°C° 0 mm 4 mps 743 mmHg 81%
    01:00 +3°C° 0 mm 4 mps 744 mmHg 82%
    02:00 +1°C° 0 mm 4 mps 744 mmHg 83%
    03:00 +1°C° 0 mm 4 mps 745 mmHg 83%
    04:00 +1°C° 0 mm 3 mps 745 mmHg 83%
    05:00 +1°C° 0 mm 3 mps 746 mmHg 83%
    06:00 +1°C° 0 mm 4 mps 747 mmHg 78%
    07:00 +3°C° 0 mm 4 mps 747 mmHg 73%
    08:00 +3°C° 0 mm 4 mps 748 mmHg 68%
    09:00 +5°C° 0 mm 4 mps 748 mmHg 61%
    10:00 +6°C° 0 mm 4 mps 748 mmHg 55%
    11:00 +8°C° 0 mm 4 mps 749 mmHg 48%
    12:00 +8°C° 0 mm 4 mps 749 mmHg 47%
    13:00 +8°C° 0 mm 4 mps 748 mmHg 46%
    14:00 +10°C° 0 mm 4 mps 748 mmHg 46%
    15:00 +9°C° 0 mm 3 mps 748 mmHg 52%
    16:00 +8°C° 0 mm 3 mps 748 mmHg 58%
    17:00 +8°C° 0 mm 3 mps 748 mmHg 64%
    18:00 +7°C° 0 mm 3 mps 748 mmHg 68%
    19:00 +5°C° 0 mm 3 mps 747 mmHg 72%
    20:00 +4°C° 0 mm 4 mps 747 mmHg 75%
    21:00 +5°C° 0 mm 4 mps 747 mmHg 73%
    22:00 +5°C° 0 mm 5 mps 746 mmHg 71%
    23:00 +5°C° 0 mm 5 mps 746 mmHg 69%

    27 September, Thursday

    Time Temperature Precipitation Wind Pressure Humidity
    00:00 +4°C° 0 mm 6 mps 745 mmHg 68%
    01:00 +4°C° 0 mm 6 mps 744 mmHg 66%
    02:00 +5°C° 0 mm 7 mps 744 mmHg 65%
    03:00 +5°C° 0.1 mm 7 mps 743 mmHg 67%
    04:00 +4°C° 0.1 mm 7 mps 742 mmHg 69%
    05:00 +4°C° 0.1 mm 8 mps 741 mmHg 71%
    06:00 +4°C° 0.6 mm 8 mps 741 mmHg 74%
    07:00 +4°C° 0.6 mm 8 mps 740 mmHg 77%
    08:00 +3°C° 0.6 mm 9 mps 740 mmHg 79%
    09:00 +5°C° 0.5 mm 8 mps 739 mmHg 81%
    10:00 +5°C° 0.5 mm 8 mps 739 mmHg 82%
    11:00 +5°C° 0.5 mm 8 mps 739 mmHg 83%
    12:00 +6°C° 0.3 mm 8 mps 739 mmHg 84%
    13:00 +6°C° 0.3 mm 7 mps 739 mmHg 85%
    14:00 +6°C° 0.3 mm 7 mps 739 mmHg 87%
    15:00 +8°C° 0.2 mm 7 mps 739 mmHg 88%
    16:00 +8°C° 0.2 mm 6 mps 739 mmHg 89%
    17:00 +8°C° 0.2 mm 6 mps 739 mmHg 90%
    18:00 +8°C° 0.1 mm 5 mps 739 mmHg 90%
    19:00 +9°C° 0.1 mm 5 mps 739 mmHg 91%
    20:00 +9°C° 0.1 mm 5 mps 740 mmHg 92%
    21:00 +9°C° 0 mm 5 mps 740 mmHg 93%
    22:00 +10°C° 0 mm 4 mps 740 mmHg 94%
    23:00 +10°C° 0 mm 4 mps 740 mmHg 95%

    28 September, Friday

    Time Temperature Precipitation Wind Pressure Humidity
    00:00 +10°C° 0 mm 4 mps 740 mmHg 95%
    01:00 +10°C° 0 mm 4 mps 740 mmHg 95%
    02:00 +10°C° 0 mm 4 mps 740 mmHg 95%
    03:00 +9°C° 0 mm 5 mps 739 mmHg 95%
    04:00 +9°C° 0 mm 5 mps 739 mmHg 94%
    05:00 +9°C° 0 mm 5 mps 739 mmHg 94%
    06:00 +10°C° 0.1 mm 6 mps 738 mmHg 93%
    07:00 +10°C° 0.1 mm 7 mps 738 mmHg 92%
    08:00 +10°C° 0.1 mm 8 mps 737 mmHg 91%
    09:00 +11°C° 0 mm 8 mps 737 mmHg 88%
    10:00 +12°C° 0 mm 8 mps 736 mmHg 86%
    11:00 +12°C° 0 mm 9 mps 736 mmHg 83%
    12:00 +13°C° 0.2 mm 9 mps 736 mmHg 81%
    13:00 +15°C° 0.2 mm 9 mps 736 mmHg 79%
    14:00 +15°C° 0.2 mm 9 mps 736 mmHg 78%
    15:00 +14°C° 0.2 mm 7 mps 737 mmHg 78%
    16:00 +11°C° 0.2 mm 6 mps 737 mmHg 79%
    17:00 +10°C° 0.2 mm 5 mps 738 mmHg 80%
    18:00 +8°C° 0 mm 4 mps 739 mmHg 83%
    19:00 +8°C° 0 mm 3 mps 740 mmHg 87%
    20:00 +7°C° 0 mm 2 mps 741 mmHg 90%
    21:00 +7°C° 0 mm 2 mps 741 mmHg 91%
    22:00 +6°C° 0 mm 2 mps 741 mmHg 91%
    23:00 +6°C° 0 mm 2 mps 742 mmHg 92%

    29 September, Saturday

    Time Temperature Precipitation Wind Pressure Humidity
    00:00 +6°C° 0 mm 2 mps 742 mmHg 92%
    01:00 +5°C° 0 mm 2 mps 743 mmHg 93%
    02:00 +5°C° 0 mm 2 mps 743 mmHg 93%
    03:00 +5°C° 0 mm 2 mps 743 mmHg 94%
    04:00 +4°C° 0 mm 2 mps 744 mmHg 95%
    05:00 +4°C° 0 mm 2 mps 744 mmHg 96%
    06:00 +5°C° 0 mm 2 mps 745 mmHg 90%
    07:00 +4°C° 0 mm 3 mps 745 mmHg 85%
    08:00 +5°C° 0 mm 3 mps 745 mmHg 80%
    09:00 +7°C° 0 mm 3 mps 746 mmHg 72%
    10:00 +7°C° 0 mm 4 mps 746 mmHg 64%
    11:00 +8°C° 0 mm 4 mps 747 mmHg 56%
    12:00 +10°C° 0 mm 4 mps 747 mmHg 52%
    13:00 +9°C° 0 mm 5 mps 747 mmHg 49%
    14:00 +9°C° 0 mm 5 mps 747 mmHg 46%
    15:00 +8°C° 0 mm 4 mps 747 mmHg 50%
    16:00 +7°C° 0 mm 4 mps 748 mmHg 53%
    17:00 +7°C° 0 mm 3 mps 748 mmHg 56%
    18:00 +5°C° 0 mm 3 mps 749 mmHg 60%
    19:00 +4°C° 0 mm 3 mps 750 mmHg 63%
    20:00 +3°C° 0 mm 2 mps 750 mmHg 66%
    21:00 +3°C° 0 mm 2 mps 751 mmHg 68%
    22:00 +3°C° 0 mm 2 mps 751 mmHg 70%
    23:00 +2°C° 0 mm 2 mps 752 mmHg 72%
    Show more

    3.3.7123123